Year,Month,Day,Hour,Minute,Value (Times are PST for temperature in C)
2013,08,22,00,00,20.50
2013,08,22,00,01,20.40
2013,08,22,00,02,20.40
2013,08,22,00,03,20.40
2013,08,22,00,04,20.40
2013,08,22,00,05,20.30
2013,08,22,00,06,20.30
2013,08,22,00,07,20.30
2013,08,22,00,08,20.30
2013,08,22,00,09,20.30
2013,08,22,00,10,20.30
2013,08,22,00,11,20.30
2013,08,22,00,12,20.30
2013,08,22,00,13,20.30
2013,08,22,00,14,20.30
2013,08,22,00,15,20.30
2013,08,22,00,16,20.30
2013,08,22,00,17,20.30
2013,08,22,00,18,20.30
2013,08,22,00,19,20.30
2013,08,22,00,20,20.30
2013,08,22,00,21,20.20
2013,08,22,00,22,20.20
2013,08,22,00,23,20.20
2013,08,22,00,24,20.20
2013,08,22,00,25,20.10
2013,08,22,00,26,20.10
2013,08,22,00,27,20.10
2013,08,22,00,28,20.10
2013,08,22,00,29,20.10
2013,08,22,00,30,20.00
2013,08,22,00,31,20.00
2013,08,22,00,32,20.00
2013,08,22,00,33,20.00
2013,08,22,00,34,20.00
2013,08,22,00,35,20.00
2013,08,22,00,36,20.00
2013,08,22,00,37,20.10
2013,08,22,00,38,20.10
2013,08,22,00,39,20.10
2013,08,22,00,40,20.10
2013,08,22,00,41,20.10
2013,08,22,00,42,20.10
2013,08,22,00,43,20.00
2013,08,22,00,44,19.90
2013,08,22,00,45,19.90
2013,08,22,00,46,19.80
2013,08,22,00,47,19.70
2013,08,22,00,48,19.60
2013,08,22,00,49,19.60
2013,08,22,00,50,19.50
2013,08,22,00,51,19.40
2013,08,22,00,52,19.20
2013,08,22,00,53,19.10
2013,08,22,00,54,19.00
2013,08,22,00,55,18.90
2013,08,22,00,56,18.80
2013,08,22,00,57,18.80
2013,08,22,00,58,18.70
2013,08,22,00,59,18.60
2013,08,22,01,00,18.60
2013,08,22,01,01,18.50
2013,08,22,01,02,18.40
2013,08,22,01,03,18.40
2013,08,22,01,04,18.30
2013,08,22,01,05,18.30
2013,08,22,01,06,18.30
2013,08,22,01,07,18.20
2013,08,22,01,08,18.20
2013,08,22,01,09,18.20
2013,08,22,01,10,18.10
2013,08,22,01,11,18.10
2013,08,22,01,12,18.10
2013,08,22,01,13,18.00
2013,08,22,01,14,18.00
2013,08,22,01,15,18.00
2013,08,22,01,16,17.90
2013,08,22,01,17,17.90
2013,08,22,01,18,17.90
2013,08,22,01,19,17.90
2013,08,22,01,20,17.80
2013,08,22,01,21,17.80
2013,08,22,01,22,17.80
2013,08,22,01,23,17.80
2013,08,22,01,24,17.80
2013,08,22,01,25,17.80
2013,08,22,01,26,17.70
2013,08,22,01,27,17.70
2013,08,22,01,28,17.70
2013,08,22,01,29,17.70
2013,08,22,01,30,17.70
2013,08,22,01,31,17.60
2013,08,22,01,32,17.60
2013,08,22,01,33,17.60
2013,08,22,01,34,17.60
2013,08,22,01,35,17.60
2013,08,22,01,36,17.50
2013,08,22,01,37,17.50
2013,08,22,01,38,17.50
2013,08,22,01,39,17.40
2013,08,22,01,40,17.40
2013,08,22,01,41,17.40
2013,08,22,01,42,17.40
2013,08,22,01,43,17.40
2013,08,22,01,44,17.30
2013,08,22,01,45,17.30
2013,08,22,01,46,17.30
2013,08,22,01,47,17.30
2013,08,22,01,48,17.30
2013,08,22,01,49,17.30
2013,08,22,01,50,17.20
2013,08,22,01,51,17.20
2013,08,22,01,52,17.20
2013,08,22,01,53,17.20
2013,08,22,01,54,17.20
2013,08,22,01,55,17.10
2013,08,22,01,56,17.10
2013,08,22,01,57,17.10
2013,08,22,01,58,17.10
2013,08,22,01,59,17.00
2013,08,22,02,00,17.00
2013,08,22,02,01,17.00
2013,08,22,02,02,17.00
2013,08,22,02,03,16.90
2013,08,22,02,04,16.90
2013,08,22,02,05,16.90
2013,08,22,02,06,16.90
2013,08,22,02,07,16.80
2013,08,22,02,08,16.80
2013,08,22,02,09,16.80
2013,08,22,02,10,16.80
2013,08,22,02,11,16.80
2013,08,22,02,12,16.70
2013,08,22,02,13,16.70
2013,08,22,02,14,16.70
2013,08,22,02,15,16.70
2013,08,22,02,16,16.70
2013,08,22,02,17,16.60
2013,08,22,02,18,16.60
2013,08,22,02,19,16.60
2013,08,22,02,20,16.60
2013,08,22,02,21,16.60
2013,08,22,02,22,16.60
2013,08,22,02,23,16.60
2013,08,22,02,24,16.60
2013,08,22,02,25,16.60
2013,08,22,02,26,16.60
2013,08,22,02,27,16.60
2013,08,22,02,28,16.60
2013,08,22,02,29,16.60
2013,08,22,02,30,16.60
2013,08,22,02,31,16.60
2013,08,22,02,32,16.60
2013,08,22,02,33,16.60
2013,08,22,02,34,16.60
2013,08,22,02,35,16.60
2013,08,22,02,36,16.60
2013,08,22,02,37,16.60
2013,08,22,02,38,16.60
2013,08,22,02,39,16.60
2013,08,22,02,40,16.60
2013,08,22,02,41,16.60
2013,08,22,02,42,16.60
2013,08,22,02,43,16.60
2013,08,22,02,44,16.60
2013,08,22,02,45,16.60
2013,08,22,02,46,16.60
2013,08,22,02,47,16.60
2013,08,22,02,48,16.60
2013,08,22,02,49,16.60
2013,08,22,02,50,16.60
2013,08,22,02,51,16.60
2013,08,22,02,52,16.60
2013,08,22,02,53,16.60
2013,08,22,02,54,16.60
2013,08,22,02,55,16.60
2013,08,22,02,56,16.60
2013,08,22,02,57,16.60
2013,08,22,02,58,16.60
2013,08,22,02,59,16.60
2013,08,22,03,00,16.60
2013,08,22,03,01,16.50
2013,08,22,03,02,16.50
2013,08,22,03,03,16.50
2013,08,22,03,04,16.50
2013,08,22,03,05,16.50
2013,08,22,03,06,16.50
2013,08,22,03,07,16.50
2013,08,22,03,08,16.50
2013,08,22,03,09,16.50
2013,08,22,03,10,16.50
2013,08,22,03,11,16.50
2013,08,22,03,12,16.50
2013,08,22,03,13,16.50
2013,08,22,03,14,16.60
2013,08,22,03,15,16.70
2013,08,22,03,16,16.70
2013,08,22,03,17,16.70
2013,08,22,03,18,16.80
2013,08,22,03,19,16.80
2013,08,22,03,20,16.90
2013,08,22,03,21,17.00
2013,08,22,03,22,17.20
2013,08,22,03,23,17.30
2013,08,22,03,24,17.60
2013,08,22,03,25,17.90
2013,08,22,03,26,18.10
2013,08,22,03,27,18.40
2013,08,22,03,28,18.60
2013,08,22,03,29,18.80
2013,08,22,03,30,19.00
2013,08,22,03,31,19.20
2013,08,22,03,32,19.40
2013,08,22,03,33,19.60
2013,08,22,03,34,19.70
2013,08,22,03,35,19.80
2013,08,22,03,36,19.90
2013,08,22,03,37,19.90
2013,08,22,03,38,20.00
2013,08,22,03,39,20.00
2013,08,22,03,40,20.10
2013,08,22,03,41,20.10
2013,08,22,03,42,20.20
2013,08,22,03,43,20.20
2013,08,22,03,44,20.20
2013,08,22,03,45,20.20
2013,08,22,03,46,20.20
2013,08,22,03,47,20.20
2013,08,22,03,48,20.20
2013,08,22,03,49,20.20
2013,08,22,03,50,20.10
2013,08,22,03,51,20.10
2013,08,22,03,52,20.10
2013,08,22,03,53,20.10
2013,08,22,03,54,20.10
2013,08,22,03,55,20.10
2013,08,22,03,56,20.10
2013,08,22,03,57,20.20
2013,08,22,03,58,20.20
2013,08,22,03,59,20.20
2013,08,22,04,00,20.20
2013,08,22,04,01,20.20
2013,08,22,04,02,20.20
2013,08,22,04,03,20.20
2013,08,22,04,04,20.20
2013,08,22,04,05,20.10
2013,08,22,04,06,20.00
2013,08,22,04,07,20.00
2013,08,22,04,08,19.90
2013,08,22,04,09,19.90
2013,08,22,04,10,19.80
2013,08,22,04,11,19.80
2013,08,22,04,12,19.70
2013,08,22,04,13,19.70
2013,08,22,04,14,19.70
2013,08,22,04,15,19.70
2013,08,22,04,16,19.70
2013,08,22,04,17,19.70
2013,08,22,04,18,19.70
2013,08,22,04,19,19.80
2013,08,22,04,20,19.90
2013,08,22,04,21,20.00
2013,08,22,04,22,20.00
2013,08,22,04,23,20.00
2013,08,22,04,24,20.10
2013,08,22,04,25,20.10
2013,08,22,04,26,20.10
2013,08,22,04,27,20.10
2013,08,22,04,28,20.10
2013,08,22,04,29,20.10
2013,08,22,04,30,20.10
2013,08,22,04,31,20.00
2013,08,22,04,32,20.00
2013,08,22,04,33,20.00
2013,08,22,04,34,20.00
2013,08,22,04,35,19.90
2013,08,22,04,36,19.90
2013,08,22,04,37,19.90
2013,08,22,04,38,19.80
2013,08,22,04,39,19.80
2013,08,22,04,40,19.70
2013,08,22,04,41,19.50
2013,08,22,04,42,19.40
2013,08,22,04,43,19.40
2013,08,22,04,44,19.30
2013,08,22,04,45,19.20
2013,08,22,04,46,19.20
2013,08,22,04,47,19.10
2013,08,22,04,48,19.10
2013,08,22,04,49,19.10
2013,08,22,04,50,19.10
2013,08,22,04,51,19.00
2013,08,22,04,52,19.00
2013,08,22,04,53,18.90
2013,08,22,04,54,18.90
2013,08,22,04,55,18.80
2013,08,22,04,56,18.90
2013,08,22,04,57,19.00
2013,08,22,04,58,19.10
2013,08,22,04,59,19.10
2013,08,22,05,00,19.20
2013,08,22,05,01,19.30
2013,08,22,05,02,19.40
2013,08,22,05,03,19.40
2013,08,22,05,04,19.40
2013,08,22,05,05,19.50
2013,08,22,05,06,19.50
2013,08,22,05,07,19.50
2013,08,22,05,08,19.60
2013,08,22,05,09,19.60
2013,08,22,05,10,19.60
2013,08,22,05,11,19.60
2013,08,22,05,12,19.60
2013,08,22,05,13,19.60
2013,08,22,05,14,19.50
2013,08,22,05,15,19.40
2013,08,22,05,16,19.20
2013,08,22,05,17,19.10
2013,08,22,05,18,18.90
2013,08,22,05,19,18.80
2013,08,22,05,20,18.70
2013,08,22,05,21,18.50
2013,08,22,05,22,18.50
2013,08,22,05,23,18.50
2013,08,22,05,24,18.50
2013,08,22,05,25,18.50
2013,08,22,05,26,18.60
2013,08,22,05,27,18.70
2013,08,22,05,28,18.80
2013,08,22,05,29,18.90
2013,08,22,05,30,19.00
2013,08,22,05,31,19.10
2013,08,22,05,32,19.20
2013,08,22,05,33,19.30
2013,08,22,05,34,19.30
2013,08,22,05,35,19.30
2013,08,22,05,36,19.30
2013,08,22,05,37,19.30
2013,08,22,05,38,19.40
2013,08,22,05,39,19.40
2013,08,22,05,40,19.40
2013,08,22,05,41,19.50
2013,08,22,05,42,19.60
2013,08,22,05,43,19.60
2013,08,22,05,44,19.60
2013,08,22,05,45,19.70
2013,08,22,05,46,19.70
2013,08,22,05,47,19.70
2013,08,22,05,48,19.70
2013,08,22,05,49,19.70
2013,08,22,05,50,19.70
2013,08,22,05,51,19.70
2013,08,22,05,52,19.60
2013,08,22,05,53,19.60
2013,08,22,05,54,19.50
2013,08,22,05,55,19.50
2013,08,22,05,56,19.50
2013,08,22,05,57,19.50
2013,08,22,05,58,19.50
2013,08,22,05,59,19.50
2013,08,22,06,00,19.50
2013,08,22,06,01,19.50
2013,08,22,06,02,19.50
2013,08,22,06,03,19.50
2013,08,22,06,04,19.40
2013,08,22,06,05,19.40
2013,08,22,06,06,19.40
2013,08,22,06,07,19.40
2013,08,22,06,08,19.40
2013,08,22,06,09,19.50
2013,08,22,06,10,19.40
2013,08,22,06,11,19.50
2013,08,22,06,12,19.50
2013,08,22,06,13,19.50
2013,08,22,06,14,19.50
2013,08,22,06,15,19.50
2013,08,22,06,16,19.50
2013,08,22,06,17,19.50
2013,08,22,06,18,19.50
2013,08,22,06,19,19.50
2013,08,22,06,20,19.50
2013,08,22,06,21,19.50
2013,08,22,06,22,19.50
2013,08,22,06,23,19.60
2013,08,22,06,24,19.50
2013,08,22,06,25,19.50
2013,08,22,06,26,19.50
2013,08,22,06,27,19.50
2013,08,22,06,28,19.50
2013,08,22,06,29,19.50
2013,08,22,06,30,19.50
2013,08,22,06,31,19.50
2013,08,22,06,32,19.40
2013,08,22,06,33,19.40
2013,08,22,06,34,19.40
2013,08,22,06,35,19.40
2013,08,22,06,36,19.40
2013,08,22,06,37,19.40
2013,08,22,06,38,19.40
2013,08,22,06,39,19.40
2013,08,22,06,40,19.40
2013,08,22,06,41,19.40
2013,08,22,06,42,19.40
2013,08,22,06,43,19.30
2013,08,22,06,44,19.30
2013,08,22,06,45,19.30
2013,08,22,06,46,19.30
2013,08,22,06,47,19.30
2013,08,22,06,48,19.30
2013,08,22,06,49,19.30
2013,08,22,06,50,19.30
2013,08,22,06,51,19.30
2013,08,22,06,52,19.30
2013,08,22,06,53,19.30
2013,08,22,06,54,19.20
2013,08,22,06,55,19.20
2013,08,22,06,56,19.20
2013,08,22,06,57,19.20
2013,08,22,06,58,19.20
2013,08,22,06,59,19.20
2013,08,22,07,00,19.20
2013,08,22,07,01,19.20
2013,08,22,07,02,19.20
2013,08,22,07,03,19.20
2013,08,22,07,04,19.20
2013,08,22,07,05,19.20
2013,08,22,07,06,19.20
2013,08,22,07,07,19.30
2013,08,22,07,08,19.30
2013,08,22,07,09,19.30
2013,08,22,07,10,19.30
2013,08,22,07,11,19.30
2013,08,22,07,12,19.40
2013,08,22,07,13,19.40
2013,08,22,07,14,19.40
2013,08,22,07,15,19.40
2013,08,22,07,16,19.50
2013,08,22,07,17,19.50
2013,08,22,07,18,19.60
2013,08,22,07,19,19.60
2013,08,22,07,20,19.60
2013,08,22,07,21,19.60
2013,08,22,07,22,19.70
2013,08,22,07,23,19.70
2013,08,22,07,24,19.80
2013,08,22,07,25,19.80
2013,08,22,07,26,19.80
2013,08,22,07,27,19.90
2013,08,22,07,28,19.90
2013,08,22,07,29,20.00
2013,08,22,07,30,20.00
2013,08,22,07,31,20.00
2013,08,22,07,32,20.00
2013,08,22,07,33,20.00
2013,08,22,07,34,20.00
2013,08,22,07,35,20.10
2013,08,22,07,36,20.10
2013,08,22,07,37,20.10
2013,08,22,07,38,20.10
2013,08,22,07,39,20.10
2013,08,22,07,40,20.10
2013,08,22,07,41,20.10
2013,08,22,07,42,20.10
2013,08,22,07,43,20.20
2013,08,22,07,44,20.20
2013,08,22,07,45,20.20
2013,08,22,07,46,20.20
2013,08,22,07,47,20.20
2013,08,22,07,48,20.20
2013,08,22,07,49,20.30
2013,08,22,07,50,20.30
2013,08,22,07,51,20.30
2013,08,22,07,52,20.30
2013,08,22,07,53,20.30
2013,08,22,07,54,20.30
2013,08,22,07,55,20.40
2013,08,22,07,56,20.40
2013,08,22,07,57,20.40
2013,08,22,07,58,20.40
2013,08,22,07,59,20.40
2013,08,22,08,00,20.40
2013,08,22,08,01,20.40
2013,08,22,08,02,20.40
2013,08,22,08,03,20.50
2013,08,22,08,04,20.50
2013,08,22,08,05,20.50
2013,08,22,08,06,20.50
2013,08,22,08,07,20.50
2013,08,22,08,08,20.50
2013,08,22,08,09,20.50
2013,08,22,08,10,20.50
2013,08,22,08,11,20.50
2013,08,22,08,12,20.50
2013,08,22,08,13,20.50
2013,08,22,08,14,20.50
2013,08,22,08,15,20.60
2013,08,22,08,16,20.60
2013,08,22,08,17,20.60
2013,08,22,08,18,20.60
2013,08,22,08,19,20.60
2013,08,22,08,20,20.60
2013,08,22,08,21,20.60
2013,08,22,08,22,20.70
2013,08,22,08,23,20.70
2013,08,22,08,24,20.70
2013,08,22,08,25,20.70
2013,08,22,08,26,20.70
2013,08,22,08,27,20.70
2013,08,22,08,28,20.70
2013,08,22,08,29,20.80
2013,08,22,08,30,20.80
2013,08,22,08,31,20.80
2013,08,22,08,32,20.80
2013,08,22,08,33,20.80
2013,08,22,08,34,20.80
2013,08,22,08,35,20.80
2013,08,22,08,36,20.80
2013,08,22,08,37,20.80
2013,08,22,08,38,20.80
2013,08,22,08,39,20.80
2013,08,22,08,40,20.80
2013,08,22,08,41,20.80
2013,08,22,08,42,20.80
2013,08,22,08,43,20.80
2013,08,22,08,44,20.80
2013,08,22,08,45,20.80
2013,08,22,08,46,20.90
2013,08,22,08,47,20.90
2013,08,22,08,48,20.90
2013,08,22,08,49,20.80
2013,08,22,08,50,20.80
2013,08,22,08,51,20.80
2013,08,22,08,52,20.80
2013,08,22,08,53,20.80
2013,08,22,08,54,20.80
2013,08,22,08,55,20.80
2013,08,22,08,56,20.90
2013,08,22,08,57,20.90
2013,08,22,08,58,20.90
2013,08,22,08,59,20.90
2013,08,22,09,00,20.90
2013,08,22,09,01,20.90
2013,08,22,09,02,20.90
2013,08,22,09,03,20.90
2013,08,22,09,04,20.90
2013,08,22,09,05,20.90
2013,08,22,09,06,20.90
2013,08,22,09,07,20.90
2013,08,22,09,08,20.90
2013,08,22,09,09,20.90
2013,08,22,09,10,20.90
2013,08,22,09,11,20.90
2013,08,22,09,12,20.90
2013,08,22,09,13,21.00
2013,08,22,09,14,21.00
2013,08,22,09,15,21.00
2013,08,22,09,16,21.00
2013,08,22,09,17,21.00
2013,08,22,09,18,20.90
2013,08,22,09,19,20.90
2013,08,22,09,20,20.90
2013,08,22,09,21,20.90
2013,08,22,09,22,20.90
2013,08,22,09,23,21.00
2013,08,22,09,24,21.00
2013,08,22,09,25,21.00
2013,08,22,09,26,21.10
2013,08,22,09,27,21.10
2013,08,22,09,28,21.10
2013,08,22,09,29,21.10
2013,08,22,09,30,21.20
2013,08,22,09,31,21.20
2013,08,22,09,32,21.20
2013,08,22,09,33,21.10
2013,08,22,09,34,21.10
2013,08,22,09,35,21.10
2013,08,22,09,36,21.10
2013,08,22,09,37,21.10
2013,08,22,09,38,21.10
2013,08,22,09,39,21.10
2013,08,22,09,40,21.10
2013,08,22,09,41,21.10
2013,08,22,09,42,21.20
2013,08,22,09,43,21.20
2013,08,22,09,44,21.20
2013,08,22,09,45,21.20
2013,08,22,09,46,21.20
2013,08,22,09,47,21.20
2013,08,22,09,48,21.20
2013,08,22,09,49,21.20
2013,08,22,09,50,21.20
2013,08,22,09,51,21.30
2013,08,22,09,52,21.20
2013,08,22,09,53,21.20
2013,08,22,09,54,21.20
2013,08,22,09,55,21.30
2013,08,22,09,56,21.30
2013,08,22,09,57,21.30
2013,08,22,09,58,21.30
2013,08,22,09,59,21.30
2013,08,22,10,00,21.30
2013,08,22,10,01,21.30
2013,08,22,10,02,21.30
2013,08,22,10,03,21.30
2013,08,22,10,04,21.30
2013,08,22,10,05,21.40
2013,08,22,10,06,21.40
2013,08,22,10,07,21.40
2013,08,22,10,08,21.50
2013,08,22,10,09,21.60
2013,08,22,10,10,21.60
2013,08,22,10,11,21.60
2013,08,22,10,12,21.60
2013,08,22,10,13,21.60
2013,08,22,10,14,21.60
2013,08,22,10,15,21.60
2013,08,22,10,16,21.60
2013,08,22,10,17,21.60
2013,08,22,10,18,21.50
2013,08,22,10,19,21.50
2013,08,22,10,20,21.60
2013,08,22,10,21,21.60
2013,08,22,10,22,21.60
2013,08,22,10,23,21.60
2013,08,22,10,24,21.50
2013,08,22,10,25,21.40
2013,08,22,10,26,21.40
2013,08,22,10,27,21.40
2013,08,22,10,28,21.40
2013,08,22,10,29,21.40
2013,08,22,10,30,21.40
2013,08,22,10,31,21.40
2013,08,22,10,32,21.40
2013,08,22,10,33,21.40
2013,08,22,10,34,21.40
2013,08,22,10,35,21.50
2013,08,22,10,36,21.50
2013,08,22,10,37,21.60
2013,08,22,10,38,21.60
2013,08,22,10,39,21.60
2013,08,22,10,40,21.60
2013,08,22,10,41,21.70
2013,08,22,10,42,21.70
2013,08,22,10,43,21.80
2013,08,22,10,44,21.90
2013,08,22,10,45,21.90
2013,08,22,10,46,22.10
2013,08,22,10,47,22.20
2013,08,22,10,48,22.30
2013,08,22,10,49,22.40
2013,08,22,10,50,22.50
2013,08,22,10,51,22.60
2013,08,22,10,52,22.60
2013,08,22,10,53,22.70
2013,08,22,10,54,22.80
2013,08,22,10,55,22.80
2013,08,22,10,56,22.80
2013,08,22,10,57,22.80
2013,08,22,10,58,22.70
2013,08,22,10,59,22.70
2013,08,22,11,00,22.80
2013,08,22,11,01,22.80
2013,08,22,11,02,22.90
2013,08,22,11,03,23.00
2013,08,22,11,04,23.10
2013,08,22,11,05,23.20
2013,08,22,11,06,23.20
2013,08,22,11,07,23.20
2013,08,22,11,08,23.20
2013,08,22,11,09,23.20
2013,08,22,11,10,23.20
2013,08,22,11,11,23.20
2013,08,22,11,12,23.20
2013,08,22,11,13,23.20
2013,08,22,11,14,23.20
2013,08,22,11,15,23.20
2013,08,22,11,16,23.20
2013,08,22,11,17,23.20
2013,08,22,11,18,23.20
2013,08,22,11,19,23.20
2013,08,22,11,20,23.30
2013,08,22,11,21,23.30
2013,08,22,11,22,23.40
2013,08,22,11,23,23.50
2013,08,22,11,24,23.50
2013,08,22,11,25,23.60
2013,08,22,11,26,23.60
2013,08,22,11,27,23.60
2013,08,22,11,28,23.60
2013,08,22,11,29,23.60
2013,08,22,11,30,23.60
2013,08,22,11,31,23.60
2013,08,22,11,32,23.60
2013,08,22,11,33,23.50
2013,08,22,11,34,23.50
2013,08,22,11,35,23.50
2013,08,22,11,36,23.50
2013,08,22,11,37,23.50
2013,08,22,11,38,23.40
2013,08,22,11,39,23.30
2013,08,22,11,40,23.30
2013,08,22,11,41,23.30
2013,08,22,11,42,23.30
2013,08,22,11,43,23.30
2013,08,22,11,44,23.30
2013,08,22,11,45,23.30
2013,08,22,11,46,23.20
2013,08,22,11,47,23.20
2013,08,22,11,48,23.20
2013,08,22,11,49,23.20
2013,08,22,11,50,23.20
2013,08,22,11,51,23.20
2013,08,22,11,52,23.20
2013,08,22,11,53,23.30
2013,08,22,11,54,23.30
2013,08,22,11,55,23.40
2013,08,22,11,56,23.40
2013,08,22,11,57,23.50
2013,08,22,11,58,23.60
2013,08,22,11,59,23.70
2013,08,22,12,00,23.70
2013,08,22,12,01,23.80
2013,08,22,12,02,23.90
2013,08,22,12,03,24.00
2013,08,22,12,04,24.00
2013,08,22,12,05,24.20
2013,08,22,12,06,24.30
2013,08,22,12,07,24.30
2013,08,22,12,08,24.30
2013,08,22,12,09,24.30
2013,08,22,12,10,24.30
2013,08,22,12,11,24.30
2013,08,22,12,12,24.20
2013,08,22,12,13,24.10
2013,08,22,12,14,24.00
2013,08,22,12,15,24.00
2013,08,22,12,16,24.00
2013,08,22,12,17,24.00
2013,08,22,12,18,24.00
2013,08,22,12,19,24.00
2013,08,22,12,20,24.00
2013,08,22,12,21,24.10
2013,08,22,12,22,24.10
2013,08,22,12,23,24.10
2013,08,22,12,24,24.00
2013,08,22,12,25,23.90
2013,08,22,12,26,23.90
2013,08,22,12,27,23.90
2013,08,22,12,28,24.00
2013,08,22,12,29,24.00
2013,08,22,12,30,24.00
2013,08,22,12,31,24.00
2013,08,22,12,32,23.90
2013,08,22,12,33,23.90
2013,08,22,12,34,23.90
2013,08,22,12,35,23.90
2013,08,22,12,36,23.80
2013,08,22,12,37,23.80
2013,08,22,12,38,23.80
2013,08,22,12,39,23.80
2013,08,22,12,40,23.80
2013,08,22,12,41,23.80
2013,08,22,12,42,23.90
2013,08,22,12,43,24.00
2013,08,22,12,44,24.00
2013,08,22,12,45,24.00
2013,08,22,12,46,24.10
2013,08,22,12,47,24.10
2013,08,22,12,48,24.10
2013,08,22,12,49,24.10
2013,08,22,12,50,24.10
2013,08,22,12,51,24.10
2013,08,22,12,52,24.10
2013,08,22,12,53,24.20
2013,08,22,12,54,24.20
2013,08,22,12,55,24.20
2013,08,22,12,56,24.20
2013,08,22,12,57,24.20
2013,08,22,12,58,24.20
2013,08,22,12,59,24.30
2013,08,22,13,00,24.30
2013,08,22,13,01,24.40
2013,08,22,13,02,24.50
2013,08,22,13,03,24.60
2013,08,22,13,04,24.70
2013,08,22,13,05,24.70
2013,08,22,13,06,24.70
2013,08,22,13,07,24.80
2013,08,22,13,08,24.80
2013,08,22,13,09,24.90
2013,08,22,13,10,24.90
2013,08,22,13,11,25.00
2013,08,22,13,12,25.00
2013,08,22,13,13,25.00
2013,08,22,13,14,24.90
2013,08,22,13,15,24.90
2013,08,22,13,16,24.90
2013,08,22,13,17,25.00
2013,08,22,13,18,25.00
2013,08,22,13,19,25.00
2013,08,22,13,20,25.00
2013,08,22,13,21,25.00
2013,08,22,13,22,25.00
2013,08,22,13,23,25.00
2013,08,22,13,24,25.00
2013,08,22,13,25,25.00
2013,08,22,13,26,25.00
2013,08,22,13,27,24.90
2013,08,22,13,28,24.90
2013,08,22,13,29,24.80
2013,08,22,13,30,24.80
2013,08,22,13,31,24.90
2013,08,22,13,32,24.90
2013,08,22,13,33,25.00
2013,08,22,13,34,25.00
2013,08,22,13,35,25.00
2013,08,22,13,36,25.10
2013,08,22,13,37,25.10
2013,08,22,13,38,25.10
2013,08,22,13,39,25.10
2013,08,22,13,40,25.10
2013,08,22,13,41,25.20
2013,08,22,13,42,25.20
2013,08,22,13,43,25.30
2013,08,22,13,44,25.30
2013,08,22,13,45,25.30
2013,08,22,13,46,25.30
2013,08,22,13,47,25.30
2013,08,22,13,48,25.40
2013,08,22,13,49,25.40
2013,08,22,13,50,25.50
2013,08,22,13,51,25.50
2013,08,22,13,52,25.60
2013,08,22,13,53,25.60
2013,08,22,13,54,25.70
2013,08,22,13,55,25.70
2013,08,22,13,56,25.70
2013,08,22,13,57,25.70
2013,08,22,13,58,25.70
2013,08,22,13,59,25.80
2013,08,22,14,00,25.80
2013,08,22,14,01,25.90
2013,08,22,14,02,26.00
2013,08,22,14,03,26.10
2013,08,22,14,04,26.20
2013,08,22,14,05,26.20
2013,08,22,14,06,26.30
2013,08,22,14,07,26.40
2013,08,22,14,08,26.40
2013,08,22,14,09,26.50
2013,08,22,14,10,26.40
2013,08,22,14,11,26.40
2013,08,22,14,12,26.30
2013,08,22,14,13,26.30
2013,08,22,14,14,26.40
2013,08,22,14,15,26.40
2013,08,22,14,16,26.50
2013,08,22,14,17,26.50
2013,08,22,14,18,26.60
2013,08,22,14,19,26.60
2013,08,22,14,20,26.70
2013,08,22,14,21,26.70
2013,08,22,14,22,26.70
2013,08,22,14,23,26.70
2013,08,22,14,24,26.70
2013,08,22,14,25,26.70
2013,08,22,14,26,26.70
2013,08,22,14,27,26.80
2013,08,22,14,28,26.80
2013,08,22,14,29,26.90
2013,08,22,14,30,27.00
2013,08,22,14,31,27.10
2013,08,22,14,32,27.10
2013,08,22,14,33,27.20
2013,08,22,14,34,27.30
2013,08,22,14,35,27.40
2013,08,22,14,36,27.50
2013,08,22,14,37,27.50
2013,08,22,14,38,27.60
2013,08,22,14,39,27.60
2013,08,22,14,40,27.70
2013,08,22,14,41,27.70
2013,08,22,14,42,27.70
2013,08,22,14,43,27.80
2013,08,22,14,44,27.80
2013,08,22,14,45,27.80
2013,08,22,14,46,27.80
2013,08,22,14,47,27.80
2013,08,22,14,48,27.80
2013,08,22,14,49,27.80
2013,08,22,14,50,27.80
2013,08,22,14,51,27.80
2013,08,22,14,52,27.90
2013,08,22,14,53,27.90
2013,08,22,14,54,28.00
2013,08,22,14,55,28.00
2013,08,22,14,56,28.00
2013,08,22,14,57,28.00
2013,08,22,14,58,28.00
2013,08,22,14,59,28.00
2013,08,22,15,00,28.00
2013,08,22,15,01,28.00
2013,08,22,15,02,27.90
2013,08,22,15,03,27.90
2013,08,22,15,04,27.90
2013,08,22,15,05,27.90
2013,08,22,15,06,27.90
2013,08,22,15,07,27.90
2013,08,22,15,08,27.90
2013,08,22,15,09,27.80
2013,08,22,15,10,27.70
2013,08,22,15,11,27.70
2013,08,22,15,12,27.70
2013,08,22,15,13,27.70
2013,08,22,15,14,27.70
2013,08,22,15,15,27.70
2013,08,22,15,16,27.80
2013,08,22,15,17,27.80
2013,08,22,15,18,27.90
2013,08,22,15,19,28.00
2013,08,22,15,20,28.00
2013,08,22,15,21,28.00
2013,08,22,15,22,28.00
2013,08,22,15,23,27.90
2013,08,22,15,24,27.80
2013,08,22,15,25,27.80
2013,08,22,15,26,27.80
2013,08,22,15,27,27.80
2013,08,22,15,28,27.80
2013,08,22,15,29,27.80
2013,08,22,15,30,27.80
2013,08,22,15,31,27.90
2013,08,22,15,32,28.00
2013,08,22,15,33,28.10
2013,08,22,15,34,28.10
2013,08,22,15,35,28.20
2013,08,22,15,36,28.30
2013,08,22,15,37,28.30
2013,08,22,15,38,28.30
2013,08,22,15,39,28.20
2013,08,22,15,40,28.20
2013,08,22,15,41,28.10
2013,08,22,15,42,28.10
2013,08,22,15,43,28.10
2013,08,22,15,44,28.10
2013,08,22,15,45,28.10
2013,08,22,15,46,28.20
2013,08,22,15,47,28.20
2013,08,22,15,48,28.20
2013,08,22,15,49,28.30
2013,08,22,15,50,28.30
2013,08,22,15,51,28.30
2013,08,22,15,52,28.40
2013,08,22,15,53,28.40
2013,08,22,15,54,28.40
2013,08,22,15,55,28.40
2013,08,22,15,56,28.40
2013,08,22,15,57,28.50
2013,08,22,15,58,28.60
2013,08,22,15,59,28.60
2013,08,22,16,00,28.70
2013,08,22,16,01,28.70
2013,08,22,16,02,28.80
2013,08,22,16,03,28.70
2013,08,22,16,04,28.50
2013,08,22,16,05,28.30
2013,08,22,16,06,28.20
2013,08,22,16,07,28.10
2013,08,22,16,08,28.00
2013,08,22,16,09,28.00
2013,08,22,16,10,28.10
2013,08,22,16,11,28.10
2013,08,22,16,12,28.20
2013,08,22,16,13,28.20
2013,08,22,16,14,28.20
2013,08,22,16,15,28.30
2013,08,22,16,16,28.30
2013,08,22,16,17,28.30
2013,08,22,16,18,28.30
2013,08,22,16,19,28.40
2013,08,22,16,20,28.40
2013,08,22,16,21,28.40
2013,08,22,16,22,28.50
2013,08,22,16,23,28.50
2013,08,22,16,24,28.50
2013,08,22,16,25,28.50
2013,08,22,16,26,28.50
2013,08,22,16,27,28.50
2013,08,22,16,28,28.50
2013,08,22,16,29,28.60
2013,08,22,16,30,28.60
2013,08,22,16,31,28.60
2013,08,22,16,32,28.60
2013,08,22,16,33,28.60
2013,08,22,16,34,28.70
2013,08,22,16,35,28.60
2013,08,22,16,36,28.20
2013,08,22,16,37,27.90
2013,08,22,16,38,27.50
2013,08,22,16,39,27.30
2013,08,22,16,40,27.00
2013,08,22,16,41,26.80
2013,08,22,16,42,26.60
2013,08,22,16,43,26.40
2013,08,22,16,44,26.20
2013,08,22,16,45,26.10
2013,08,22,16,46,26.00
2013,08,22,16,47,25.70
2013,08,22,16,48,25.40
2013,08,22,16,49,25.10
2013,08,22,16,50,25.00
2013,08,22,16,51,24.90
2013,08,22,16,52,24.90
2013,08,22,16,53,24.90
2013,08,22,16,54,24.90
2013,08,22,16,55,24.80
2013,08,22,16,56,24.60
2013,08,22,16,57,24.40
2013,08,22,16,58,24.30
2013,08,22,16,59,24.10
2013,08,22,17,00,24.00
2013,08,22,17,01,23.90
2013,08,22,17,02,23.80
2013,08,22,17,03,23.60
2013,08,22,17,04,23.60
2013,08,22,17,05,23.60
2013,08,22,17,06,23.50
2013,08,22,17,07,23.30
2013,08,22,17,08,23.20
2013,08,22,17,09,23.10
2013,08,22,17,10,23.10
2013,08,22,17,11,23.10
2013,08,22,17,12,23.20
2013,08,22,17,13,23.30
2013,08,22,17,14,23.40
2013,08,22,17,15,23.40
2013,08,22,17,16,23.50
2013,08,22,17,17,23.60
2013,08,22,17,18,23.60
2013,08,22,17,19,23.70